Location: Durchhausen
(48.0388°N, 8.6753°E)
Time: 17:41:34
(UTC+00:00)

Daily predictions for brighter satellites

Satellite Brightness Start Highest point End
(mag) Time Altitude Azimuth Time Altitude Azimuth Time Altitude Azimuth
Cosmos 407 Rocket 3.8 20:03:57 10° NNW 20:09:06 56° ENE 20:14:09 10° SE
APEX 4.1 20:04:09 10° SSW 20:10:06 70° ESE 20:15:06 10° NNE
SL-14 R/B 3.3 20:06:56 10° S 20:10:48 85° W 20:14:44 10° N
S3M 4.0 20:05:13 10° S 20:11:22 67° E 20:17:29 10° NNE
Cosmos 1455 Rocket 3.6 20:08:53 10° N 20:13:03 42° ENE 20:17:10 10° SSE
USA 245 3.9 20:09:01 10° SSE 20:14:07 63° ENE 20:18:16 10° N
SL-16 R/B 4.2 20:08:57 10° WSW 20:14:07 35° NW 20:19:20 10° NNE
Cosmos 1626 4.3 20:11:27 10° SW 20:14:39 29° WNW 20:17:53 10° N
MetOp-B 4.2 20:11:27 10° SSE 20:16:48 89° W 20:22:12 10° NNW
SPOT 5 3.2 20:13:18 10° SE 20:17:35 44° ENE 20:21:45 10° N
Meteor 2-5 Rocket 4.2 20:13:15 10° SSE 20:18:22 40° E 20:23:30 10° NNE
SPOT 1/Viking Rocket 4.0 20:16:17 10° S 20:21:21 61° WSW 20:26:29 10° NNW
Cosmos 1271 Rocket 4.3 20:19:36 10° NNE 20:22:51 23° ENE 20:26:03 10° ESE
Cosmos 1300 2.9 20:20:46 10° NNW 20:24:33 71° W 20:28:19 10° S
Cosmos 1025 Rocket 3.6 20:21:06 10° SSE 20:25:02 38° E 20:29:01 10° NNE
ERS-1 Rocket 3.3 20:24:48 10° SE 20:29:42 54° ENE 20:34:37 10° N
Cosmos 1140 Rocket 3.5 20:27:30 10° NNW 20:32:46 90° WSW 20:37:56 10° SSE
Cosmos 1953 3.8 20:31:40 10° NNW 20:35:16 34° W 20:38:51 10° SSW
Cosmos 1943 3.6 20:31:51 10° SW 20:37:31 70° WNW 20:43:11 10° NNE
Cosmos 1745 Rocket 4.4 20:33:17 10° NNW 20:39:21 65° W 20:45:25 10° S
CZ-2C R/B 4.2 20:36:59 10° NNE 20:41:25 42° E 20:45:43 10° S
Cosmos 1603 4.0 20:35:46 10° SSW 20:41:28 74° WNW 20:47:15 10° NNE
Lacrosse 5 2.8 20:37:43 10° NW 20:42:40 46° NNE 20:47:34 10° E
Cosmos 1975 Rocket 3.1 20:41:14 10° S 20:45:41 77° E 20:50:09 10° NNE
H-2A R/B 4.1 20:43:17 10° N 20:47:07 31° WNW 20:51:01 10° SW
Helios 1A Rocket 2.9 20:43:49 12° SSE 20:47:37 85° E 20:51:44 10° NNW
Ariane Rocket 4.1 20:44:15 10° SSW 20:49:01 40° W 20:53:51 10° NNW
CARTOSAT-1 4.4 20:45:27 10° S 20:49:37 48° W 20:53:49 10° NNW
Cosmos 1954 Rocket 4.3 20:44:37 10° NNW 20:49:51 57° ENE 20:54:15 14° SE
Resurs 01 Rocket 3.7 20:50:05 10° SSW 20:53:39 23° W 20:57:15 10° NW
Lacrosse 4 Rocket 3.2 20:53:53 10° WSW 20:57:42 34° NW 21:01:28 10° NNE
Tiangong 2.4 20:56:37 10° SW 20:59:12 23° S 21:00:12 19° SE
Cosmos 2228 4.5 20:58:11 10° NNE 21:01:41 24° ENE 21:04:23 14° ESE
Cosmos 1544 Rocket 3.5 20:59:58 10° N 21:04:18 73° E 21:07:38 17° SSE
FALCON 9 DEB 2.9 21:03:20 10° WSW 21:06:36 88° NNW 21:09:53 10° ENE
Terra 1.8 21:02:52 15° SSE 21:06:53 89° ENE 21:11:41 10° NNW
SL-8 R/B 3.7 21:03:50 10° W 21:08:40 90° NW 21:13:30 10° E
USA 267 3.2 21:02:51 10° ENE 21:09:24 71° SE 21:15:55 10° SW
Cosmos 1980 Rocket 4.5 21:07:05 10° N 21:10:44 17° NE 21:14:22 10° ENE
Cosmos 1455 2.1 21:08:17 10° N 21:12:05 80° E 21:14:42 19° SSE
Meteor 1-24 Rocket 3.6 21:07:01 10° S 21:12:19 87° W 21:17:44 10° N
Cosmos 2369 Rocket 4.5 21:09:47 10° WNW 21:13:09 16° W 21:16:32 10° SW
Cosmos 2315 Rocket 4.2 21:07:09 10° SSW 21:13:29 75° W 21:19:50 10° N
Cosmos 1697 Rocket 4.2 21:11:02 10° N 21:15:48 27° NE 21:20:32 10° ESE
NOSS 2-1 (C) 4.2 21:13:01 10° NW 21:17:20 65° NE 21:22:11 16° SE
Cosmos 1371 Rocket 4.0 21:13:06 10° SSW 21:18:20 89° WNW 21:23:39 10° NNE
RESURS DK-1 4.2 21:16:32 10° N 21:19:52 23° NE 21:23:11 10° E
Cosmos 1452 Rocket 4.4 21:17:03 18° SSE 21:19:59 31° E 21:24:34 10° NE
Spot 2 Rocket 4.2 21:15:27 11° S 21:20:09 50° W 21:25:08 10° NNW
ARIANE 5 R/B 2.7 21:23:37 18° S 21:26:53 77° WSW 21:31:22 10° NNW
NOSS 2-1 (D) 4.0 21:23:19 10° NW 21:27:43 75° NE 21:32:17 18° SE
Lacrosse 5 rocket 1.1 21:25:24 10° NW 21:29:17 84° SW 21:31:47 22° SE
ASTEX 1 4.3 21:24:53 10° NNE 21:29:26 34° E 21:32:06 20° SE
Cosmos 2084 3.3 21:26:52 12° SSW 21:30:20 51° SE 21:34:06 10° NE
Cosmos 2074 Rocket 4.0 21:31:10 10° N 21:37:30 84° E 21:42:02 20° S
ATLAS 2AS CENTAUR R/B 2.7 21:32:57 10° NW 21:40:07 81° SW 21:44:51 21° SSE
Cosmos 1624 Rocket 4.4 21:34:58 10° SSW 21:40:10 65° WNW 21:45:23 10° NNE
Cosmos 1656 3.7 21:37:51 10° NNW 21:43:19 72° ENE 21:46:54 22° SE
GP-B 4.2 21:39:42 10° NNE 21:43:41 31° E 21:45:39 22° SE
USA 234 3.2 21:38:51 17° SE 21:44:12 80° SW 21:50:48 10° NW
Cosmos 1833 Rocket 3.6 21:44:37 22° SE 21:47:01 31° ESE 21:51:51 10° NE
Cosmos 2154 Rocket 4.0 21:50:33 10° N 21:56:51 84° E 22:00:52 24° SSE
Nadezhda 1 Rocket 3.9 21:54:38 22° S 21:58:46 72° E 22:04:49 10° NNE
Cosmos 1271 Rocket 4.1 21:55:13 10° NNW 21:58:48 32° W 22:01:15 17° SSW
Cosmos 2082 Rocket 3.8 21:59:42 16° ESE 22:01:18 17° E 22:04:55 10° ENE
Cosmos 1741 Rocket 4.0 21:58:41 10° NNW 22:04:02 81° ENE 22:07:02 27° SSE
Cosmos 1610 Rocket 4.5 21:58:33 10° N 22:04:46 86° E 22:08:40 25° S
Cosmos 2344 4.4 22:00:18 10° NW 22:08:57 71° NE 22:20:43 11° SE
Cosmos 968 Rocket 4.3 22:20:20 10° NNW 22:25:17 43° ENE 22:28:30 20° ESE
Cosmos 1606 Rocket 3.5 22:21:19 10° NNW 22:25:38 74° W 22:27:26 34° S
Lacrosse 5 2.1 22:20:47 10° WNW 22:25:47 55° SW 22:27:56 32° SSE
H-2A R/B 4.0 22:22:01 10° NNE 22:26:02 43° E 22:27:16 33° SE
COSMOS 2406 3.9 22:25:00 27° SSE 22:27:15 38° ESE 22:32:33 10° NE
Cosmos 724 4.5 22:25:29 10° SW 22:31:16 72° NW 22:37:05 10° NE
Meteor 1-11 4.4 22:30:33 29° SSE 22:33:17 58° E 22:38:47 10° NNE
SL-8 Rocket 4.1 22:29:47 10° N 22:36:03 67° ENE 22:39:30 28° SSE
TSX-5 4.4 22:33:04 20° SW 22:36:07 74° WNW 22:41:44 10° NNE
Cosmos 1850 Rocket 4.4 22:31:36 10° NNW 22:36:41 53° WSW 22:39:02 29° SSW
Cosmos 2369 4.2 22:31:53 10° NNW 22:37:33 57° ENE 22:41:14 22° SE
SJ 16-02 4.2 22:37:53 10° NE 22:38:35 10° NE 22:39:17 10° NE
Cosmos 1328 3.9 22:37:12 34° SSW 22:38:52 70° WNW 22:42:54 10° N
Cosmos 2228 4.1 22:35:25 10° NNW 22:39:16 34° W 22:41:10 23° SW
Cosmos 2218 Rocket 4.3 22:33:17 10° N 22:39:39 62° ENE 22:43:17 26° SSE
Cosmos 2341 Rocket 4.0 22:35:12 10° N 22:41:36 86° E 22:45:04 29° S
SL-16 R/B 4.3 22:38:13 10° N 22:42:30 21° NE 22:46:45 10° E
Cosmos 1408 2.5 22:43:33 52° SSE 22:44:10 65° E 22:47:35 10° NNE
Terra 4.3 22:43:30 10° WSW 22:45:20 12° W 22:47:10 10° WNW
Cosmos 1825 3.1 22:46:54 30° ESE 22:47:35 32° E 22:50:58 10° NNE
ALOS 2 2.5 22:46:37 38° SSE 22:48:18 88° ENE 22:52:43 10° NNW
Cosmos 2366 rocket 4.1 22:43:00 10° N 22:49:18 71° ENE 22:52:47 28° SSE
Cosmos 1900 4.5 22:45:38 10° NW 22:50:50 78° NE 22:53:35 28° SE
SL-8 R/B 3.6 22:46:26 10° W 22:51:16 86° S 22:56:07 10° ESE
Cosmos 1726 Rocket 4.0 22:47:49 10° NNW 22:52:01 51° W 22:53:36 33° SSW
USA 267 4.0 22:45:58 10° NE 22:52:18 54° NNW 22:58:38 10° W
Cosmos 1980 Rocket 2.4 22:50:10 10° NNW 22:55:52 68° ENE 22:59:14 25° SE
RESURS DK-1 2.8 22:54:06 10° NW 22:58:05 46° WSW 22:59:03 38° SSW
Cosmos 1697 Rocket 2.8 22:54:39 10° NNW 23:00:12 63° WSW 23:02:42 33° S
Cosmos 1331 Rocket 4.2 22:57:21 23° SW 23:00:40 69° WNW 23:06:00 10° NNE
Cosmos 1892 2.6 23:06:34 48° SSW 23:07:31 78° W 23:11:18 10° N
Lacrosse 5 rocket 3.4 23:05:35 10° W 23:07:17 14° WSW 23:07:17 14° WSW
ERS-2 2.1 23:05:15 10° NNE 23:08:49 62° ESE 23:09:26 52° SSE
ADEOS Rocket 3.4 23:05:35 29° S 23:09:33 77° WSW 23:17:08 10° NNW
USA 276 1.9 23:10:14 75° ENE 23:10:14 75° ENE 23:12:57 10° ENE
Cosmos 2084 Rocket 3.8 23:07:09 10° NW 23:11:00 56° NE 23:13:11 24° ESE
In-Cosmos 22 Rocket 4.2 23:08:21 33° S 23:11:01 78° E 23:16:35 10° NNE
Cosmos 2058 Rocket 3.5 23:11:00 10° NNW 23:15:15 50° W 23:16:43 35° SSW
Cosmos 1602 Rocket 4.1 23:15:24 34° SE 23:16:41 45° E 23:20:50 10° NNE
Cosmos 1959 Rocket 4.4 23:12:14 10° NNW 23:18:21 76° W 23:21:25 31° S
Cosmos 2181 Rocket 4.0 23:15:17 29° SSW 23:18:35 82° W 23:24:48 10° N
Cosmos 1302 Rocket 3.9 23:21:10 32° SSW 23:23:40 86° WNW 23:28:54 10° NNE
Cosmos 2278 3.9 23:18:10 10° NNW 23:23:54 68° ENE 23:27:31 23° SE
Cosmos 192 4.4 23:21:56 31° SSW 23:24:15 76° WNW 23:29:11 10° NNE
Cosmos 2322 Rocket 4.0 23:19:56 10° NNW 23:24:49 28° NE 23:29:41 10° ESE
Geosat FO 4.4 23:25:31 51° SE 23:26:17 81° ENE 23:29:50 10° NNW
USA 234 4.3 23:26:11 23° SSW 23:27:51 26° SW 23:33:10 10° WNW
ATLAS 2AS CENTAUR R/B 4.2 23:25:31 10° WNW 23:29:52 18° WSW 23:32:16 15° SW
Cosmos 1833 Rocket 3.4 23:26:16 15° SW 23:30:42 49° NW 23:36:11 10° NNE
CZ-2D R/B 4.4 23:33:43 10° ENE 23:35:40 12° E 23:37:36 10° ESE
Geosat 4.2 23:35:56 22° SE 23:39:08 68° ENE 23:44:08 10° NNW
BREEZE-M DEB (TANK) 4.2 23:36:59 10° WNW 23:40:45 90° NNE 23:57:23 10° ESE
Okean 1-7 Rocket 3.9 23:39:48 34° SW 23:41:29 58° WNW 23:45:54 10° N
Cosmos 1626 Rocket 3.7 23:42:03 37° SW 23:43:34 64° WNW 23:47:53 10° N
Cosmos 2082 Rocket 2.2 23:41:32 28° SSW 23:44:39 82° WNW 23:50:24 10° NNE
Cosmos 1821 Rocket 4.0 23:41:16 10° N 23:47:36 88° W 23:50:56 30° S
Cosmos 1869 4.0 23:46:29 10° NNW 23:50:06 40° W 23:50:55 35° SW
ATLAS 5 CENTAUR R/B 2.3 23:51:04 28° SE 23:51:18 28° ESE 23:54:48 10° ENE
Cosmos 1238 4.3 23:52:31 57° ESE 23:52:45 59° E 23:55:44 10° NNE
Cosmos 1825 Rocket 4.0 23:53:55 33° SSE 23:55:26 50° E 23:59:37 10° NNE
